Location: ???????
(55.8860°N, 38.0932°E)
Time: 09:48:49
(UTC+00:00)

Cosmos 1092 Rocket - Pass Details

Date: 14 April 2024
Orbit: 955 x 993 km, 83.0° (Epoch: 19 May)

Event Time Altitude Azimuth Distance (km) Brightness Sun altitude
Exits shadow 00:41:44 - 184° (S) 3,036 6.2 -13.3°
Reaches altitude 10° 00:42:40 10° 184° (S) 2,681 5.9 -13.2°
Maximum altitude 00:48:48 80° 98° (E) 978 4.1 -12.5°
Drops below altitude 10° 00:54:59 10° 13° (NNE) 2,706 7.1 -11.8°
Sets 00:57:29 0° 13° (NNE) 3,659 7.9 -11.6°
